TimeEDT,TemperatureF,Dew PointF,Humidity,Sea Level PressureIn,VisibilityMPH,Wind Direction,Wind SpeedMPH,Gust SpeedMPH,PrecipitationIn,Events,Conditions,WindDirDegrees,DateUTC
12:53 AM,63.0,55.0,75,30.20,10.0,ENE,4.6,-,N/A,,Clear,70,2013-05-02 04:53:00
1:53 AM,62.1,54.0,75,30.19,10.0,East,4.6,-,N/A,,Clear,80,2013-05-02 05:53:00
2:53 AM,60.1,54.0,80,30.18,10.0,Calm,Calm,-,N/A,,Clear,0,2013-05-02 06:53:00
3:53 AM,59.0,53.1,81,30.18,10.0,ENE,3.5,-,N/A,,Clear,60,2013-05-02 07:53:00
4:53 AM,57.9,53.1,84,30.18,10.0,ENE,3.5,-,N/A,,Clear,60,2013-05-02 08:53:00
5:53 AM,57.0,52.0,83,30.18,10.0,Calm,Calm,-,N/A,,Clear,0,2013-05-02 09:53:00
6:53 AM,55.9,51.1,84,30.19,10.0,Calm,Calm,-,N/A,,Clear,0,2013-05-02 10:53:00
7:53 AM,60.1,53.1,78,30.21,10.0,Calm,Calm,-,N/A,,Clear,0,2013-05-02 11:53:00
8:53 AM,64.9,53.1,65,30.22,10.0,South,5.8,-,N/A,,Clear,170,2013-05-02 12:53:00
9:53 AM,68.0,52.0,56,30.23,10.0,South,9.2,-,N/A,,Partly Cloudy,180,2013-05-02 13:53:00
10:53 AM,71.1,54.0,55,30.22,10.0,Variable,6.9,-,N/A,,Mostly Cloudy,0,2013-05-02 14:53:00
11:53 AM,73.9,55.0,52,30.22,10.0,SSE,8.1,-,N/A,,Clear,150,2013-05-02 15:53:00
12:53 PM,75.0,53.1,46,30.20,10.0,SSE,9.2,-,N/A,,Clear,150,2013-05-02 16:53:00
1:53 PM,75.0,51.1,43,30.19,10.0,SE,10.4,-,N/A,,Clear,140,2013-05-02 17:53:00
2:53 PM,75.9,54.0,46,30.17,10.0,ESE,8.1,17.3,N/A,,Clear,110,2013-05-02 18:53:00
3:53 PM,77.0,50.0,39,30.15,10.0,SE,9.2,-,N/A,,Clear,130,2013-05-02 19:53:00
4:53 PM,78.1,52.0,40,30.14,10.0,SSE,15.0,20.7,N/A,,Scattered Clouds,160,2013-05-02 20:53:00
5:53 PM,75.0,51.1,43,30.13,10.0,SE,8.1,20.7,N/A,,Partly Cloudy,140,2013-05-02 21:53:00
6:53 PM,73.0,52.0,48,30.12,10.0,SSE,9.2,-,N/A,,Clear,160,2013-05-02 22:53:00
7:53 PM,73.0,51.1,46,30.12,10.0,SSE,8.1,-,N/A,,Clear,150,2013-05-02 23:53:00
8:53 PM,70.0,51.1,51,30.12,10.0,ESE,3.5,-,N/A,,Scattered Clouds,120,2013-05-03 00:53:00
9:53 PM,68.0,53.1,59,30.12,10.0,SE,4.6,-,N/A,,Clear,130,2013-05-03 01:53:00
10:53 PM,66.0,53.1,63,30.12,10.0,ESE,3.5,-,N/A,,Clear,120,2013-05-03 02:53:00
11:53 PM,64.0,53.1,67,30.12,10.0,East,5.8,-,N/A,,Overcast,90,2013-05-03 03:53:00